www.pogodaiklimat.ru

Погода и климат >> Архив погоды >> Великобритания >> Озеро Вирнви


ПОГОДА на Озере Вирнви

  • Прогноз погоды на Озере Вирнви
  • Монитор погоды на Озере Вирнви

АРХИВ ПОГОДЫ на Озере Вирнви

Время (UTC), дата Ветер
(напр.,м/с)
 
Видим.   Явления Облачность Т
(С)
Тd
(С)
f
(%)
Тe
(С)
Тes
(С)
Комфортность P
(гПа)
Po
(гПа)
Тmin
(С)
Tmax
(С)
R
(мм)
R24
(мм)
S
(см)
10 11.07 Ю 8 3400 м н/о +16.4 +15.1 92 +15 +15 1012.0 969.9
11 11.07 Ю 7 4900 м н/о +16.2 +14.4 89 +15 +15 1012.2 970.1
12 11.07 Ю 7 4500 м н/о +15.2 +14.7 97 +13 +13 1012.6 970.3 0.2
13 11.07 Ю 8 13 км н/о +15.7 +14.9 95 +14 +14 1012.4 970.2
14 11.07 Ю 8 3600 м н/о +15.6 +14.7 94 +14 +14 1012.1 970.0
15 11.07 Ю 7 3000 м н/о +15.5 +15.0 97 +14 +14 1012.1 970.0
16 11.07 Ю 6 7000 м н/о +15.9 +15.5 97 +15 +15 1012.1 970.0
17 11.07 Ю 8 5000 м н/о +15.1 +14.4 96 +13 +13 1012.1 969.9
18 11.07 Ю 8 22 км н/о +15.4 +14.1 92 +13 +13 1011.7 969.6 +17.0 0.4
19 11.07 Ю 7 2400 м н/о +14.8 +14.4 97 +13 +13 1011.9 969.6
20 11.07 Ю 4 4300 м н/о +14.7 +14.4 98 +13 +13 1012.1 969.8
21 11.07 Ю 4 3500 м н/о +14.6 +14.3 98 +13 +13 1012.4 970.1
22 11.07 ЮЗ 2 2800 м н/о +14.6 +14.3 98 +14 +14 1012.7 970.4
23 11.07 ЮЗ 4 40 км н/о +14.3 +13.9 97 +13 +13 1012.7 970.3
00 12.07 ЮЗ 3 26 км н/о +12.9 +12.4 97 +12 +12 1012.9 970.4 4
01 12.07 ЮЗ 4 28 км н/о +12.8 +12.1 96 +11 +11 1013.1 970.5
02 12.07 ЮЗ 3 26 км н/о +12.4 +11.8 96 +11 +11 1013.3 970.6
03 12.07 Ю 2 28 км н/о +12.7 +12.0 96 +12 +12 1013.3 970.7
04 12.07 ЮЗ 1 23 км н/о +13.2 +12.2 94 +13 +13 1013.8 971.2
05 12.07 ЮЗ 1 15 км н/о +13.1 +12.5 96 +13 +13 1014.4 971.7
06 12.07 ЮЗ 2 25 км н/о +13.3 +12.2 93 +13 +13 1014.9 972.3 +11.9 4
07 12.07 З 2 22 км н/о +15.4 +13.8 90 +15 +15 1015.1 972.7
08 12.07 ЮЗ 3 40 км н/о +14.7 +12.2 85 +14 +14 1015.7 973.3
09 12.07 ЮЗ 2 12 км н/о +15.6 +12.8 83 +15 +15 1016.0 973.7
10 12.07 З 3 55 км н/о +15.3 +12.5 83 +15 +15 1016.5 974.2
11 12.07 З 3 55 км н/о +15.2 +14.1 93 +14 +14 1017.1 974.7
12 12.07 З 4 40 км н/о +17.8 +14.8 83 +18 +18 1017.0 975.0 1
13 12.07 З 3 60 км н/о +17.1 +13.6 80 +17 +17 1017.6 975.4
14 12.07 ЮЗ 3 60 км н/о +16.9 +12.5 75 +17 +17 1018.0 975.7
15 12.07 ЮЗ 3 60 км н/о +17.5 +13.1 75 +18 +18 1018.3 976.1
16 12.07 ЮЗ 3 50 км н/о +16.0 +12.3 79 +16 +16 1018.8 976.5
17 12.07 З 2 50 км н/о +15.5 +11.8 79 +16 +16 1019.4 976.9
18 12.07 ЮЗ 2 55 км н/о +15.1 +12.0 82 +15 +15 1020.0 977.5 +18.2 1
19 12.07 ЮЗ 2 55 км н/о +14.7 +11.7 82 +14 +14 1020.5 977.8
20 12.07 ЮЗ 2 50 км н/о +14.1 +11.7 85 +14 +14 1020.5 977.8
21 12.07 ЮЗ 3 45 км н/о +14.0 +12.0 88 +13 +13 1021.1 978.4
22 12.07 ЮЗ 2 30 км н/о +13.6 +12.3 92 +13 +13 1021.5 978.7
23 12.07 З 3 40 км н/о +13.5 +12.5 94 +12 +12 1021.7 978.8
00 13.07 З 4 45 км н/о +13.2 +12.1 93 +12 +12 1022.2 979.2
01 13.07 ЮЗ 1 30 км н/о +12.9 +12.1 95 +13 +13 1022.3 979.3
02 13.07 З 3 8000 м н/о +12.5 +11.8 95 +11 +11 1022.2 979.2
03 13.07 З 4 18 км н/о +12.2 +11.4 95 +10 +10 1022.5 979.4
04 13.07 З 3 50 км н/о +11.7 +11.1 96 +10 +10 1022.6 979.5
05 13.07 ЮЗ 2 40 км н/о +11.7 +10.8 94 +11 +11 1023.1 979.9
06 13.07 ЮЗ 2 45 км н/о +12.1 +10.3 89 +11 +11 1023.0 979.9 +11.7 0.2
07 13.07 ЮЗ 2 45 км н/о +12.6 +10.5 87 +12 +12 1023.2 980.1
08 13.07 З 5 45 км н/о +12.9 +11.3 90 +11 +11 1023.5 980.4
09 13.07 СЗ 3 45 км н/о +13.4 +11.2 87 +12 +12 1023.6 980.7
10 13.07 СЗ 4 24 км н/о +12.9 +11.1 89 +11 +11 1024.3 981.2
11 13.07 З 4 5000 м н/о +13.1 +11.4 89 +11 +11 1024.5 981.4
12 13.07 СЗ 3 45 км н/о +13.6 +11.7 88 +13 +13 1024.6 981.6
13 13.07 З 4 13 км н/о +13.3 +11.9 91 +12 +12 1024.6 981.6
14 13.07 З 4 40 км н/о +14.6 +12.0 84 +13 +13 1024.2 981.4
15 13.07 СЗ 4 40 км н/о +15.0 +11.9 82 +14 +14 1024.2 981.5
16 13.07 З 6 30 км н/о +13.7 +11.1 84 +12 +12 1024.6 981.6
17 13.07 СЗ 5 35 км н/о +13.7 +11.1 84 +12 +12 1024.4 981.4
18 13.07 СЗ 6 35 км н/о +13.6 +10.6 82 +11 +11 1024.4 981.4 +15.9
19 13.07 З 5 55 км н/о +12.9 +9.2 78 +11 +11 1024.6 981.5
20 13.07 З 4 45 км н/о +12.3 +9.2 81 +10 +10 1024.9 981.7
21 13.07 З 3 40 км н/о +11.2 +9.0 86 +10 +10 1025.0 981.7
22 13.07 З 5 50 км н/о +10.9 +8.8 87 +8 +8 1024.8 981.5
23 13.07 СЗ 5 40 км н/о +10.4 +9.0 91 +7 +7 1025.0 981.6
00 14.07 З 5 35 км н/о +10.4 +9.2 92 +7 +7 1025.1 981.6
01 14.07 З 4 35 км н/о +10.2 +9.0 92 +7 +7 1024.9 981.5
02 14.07 СЗ 4 40 км н/о +10.2 +8.9 92 +7 +7 1024.8 981.3
03 14.07 СЗ 4 30 км н/о +10.0 +8.9 93 +7 +7 1024.4 981.0
04 14.07 З 3 35 км н/о +9.8 +8.7 93 +7 +7 1024.4 980.9
05 14.07 З 3 35 км н/о +10.4 +9.4 94 +8 +8 1024.3 980.9
06 14.07 З 1 30 км н/о +11.0 +10.1 94 +11 +11 1024.4 981.0 +9.4
07 14.07 СВ 1 28 км н/о +11.6 +10.5 93 +11 +11 1024.4 981.1
08 14.07 СВ 2 30 км н/о +12.8 +10.4 85 +12 +12 1024.4 981.3
09 14.07 СВ 4 26 км н/о +13.4 +11.0 85 +12 +12 1024.4 981.4
10 14.07 В 4 27 км н/о +13.3 +11.2 87 +12 +12 1024.7 981.7
11 14.07 СВ 4 21 км н/о +14.8 +12.0 83 +14 +14 1024.4 981.6
12 14.07 В 3 26 км н/о +15.5 +11.8 79 +15 +15 1024.4 981.8
13 14.07 В 2 21 км н/о +15.7 +11.3 75 +16 +16 1024.3 981.7
14 14.07 В 3 30 км н/о +17.1 +11.3 69 +17 +17 1024.0 981.6
15 14.07 В 3 35 км н/о +17.2 +12.1 72 +17 +17 1024.0 981.6
16 14.07 В 3 30 км н/о +17.6 +12.8 73 +18 +18 1023.8 981.4
17 14.07 СВ 3 30 км н/о +17.6 +12.3 71 +18 +18 1023.4 981.1
18 14.07 В 3 35 км н/о +17.6 +11.6 68 +18 +18 1023.1 980.8 +18.3
19 14.07 В 3 40 км н/о +17.3 +11.2 67 +17 +17 1023.1 980.7
20 14.07 СВ 3 40 км н/о +16.2 +12.1 77 +16 +16 1023.3 980.7
21 14.07 СВ 3 35 км н/о +14.8 +11.5 81 +14 +14 1023.6 980.9
22 14.07 СВ 2 30 км н/о +14.2 +11.2 82 +14 +14 1023.9 981.0
23 14.07 СВ 2 29 км н/о +13.8 +11.4 85 +14 +14 1024.0 981.1
00 15.07 СВ 2 23 км н/о +12.9 +11.1 89 +12 +12 1024.1 981.0
01 15.07 С 1 20 км н/о +12.7 +11.3 91 +13 +13 1024.2 981.1
02 15.07 СВ 1 17 км н/о +12.2 +10.8 91 +12 +12 1024.1 980.9
03 15.07 С 1 14 км н/о +11.8 +11.0 95 +12 +12 1023.8 980.6
04 15.07 СВ 1 800 м н/о +10.9 +10.2 95 +10 +10 1023.9 980.5
05 15.07 З 2 6000 м н/о +11.1 +10.6 97 +10 +10 1023.7 980.4
06 15.07 СЗ 2 7000 м н/о +11.7 +11.0 95 +11 +11 1023.4 980.2 +10.8
07 15.07 СВ 1 12 км н/о +13.6 +12.4 92 +14 +14 1023.2 980.3
08 15.07 ЮВ 1 14 км н/о +14.3 +12.2 87 +15 +15 1023.1 980.3
09 15.07 В 2 23 км н/о +16.3 +12.7 79 +17 +17 1022.7 980.2
10 15.07 В 2 25 км н/о +17.4 +12.9 75 +18 +18 1022.3 980.0
11 15.07 В 2 30 км н/о +17.9 +12.6 71 +19 +19 1022.1 979.9
12 15.07 Ю 3 30 км н/о +18.0 +12.6 71 +18 +18 1022.0 979.8
13 15.07 Ю 2 40 км н/о +19.0 +12.2 65 +21 +21 комфорт 1021.4 979.4
14 15.07 В 1 35 км н/о +19.6 +13.1 66 +23 +23 комфорт 1021.1 979.2
15 15.07 В 2 45 км н/о +20.0 +11.6 58 +22 +22 комфорт 1020.8 979.0
16 15.07 В 1 30 км н/о +19.6 +12.4 63 +23 +23 комфорт 1020.6 978.7
17 15.07 ЮЗ 2 35 км н/о +19.4 +12.3 63 +21 +21 комфорт 1020.3 978.3
18 15.07 ЮЗ 1 35 км н/о +19.2 +12.4 65 +21 +21 комфорт 1020.3 978.3 +20.2
19 15.07 З 2 30 км н/о +17.6 +12.7 73 +18 +18 1020.5 978.3
20 15.07 З 3 27 км н/о +16.5 +13.0 80 +16 +16 1020.8 978.4
21 15.07 З 4 30 км н/о +16.0 +12.6 80 +15 +15 1020.9 978.5
22 15.07 З 4 30 км н/о +15.8 +12.1 79 +15 +15 1020.9 978.4
23 15.07 З 2 30 км н/о +15.5 +11.9 79 +15 +15 1020.8 978.2
00 16.07 СЗ 3 30 км н/о +15.2 +12.1 82 +15 +15 1020.8 978.2
01 16.07 Ю 2 29 км н/о +14.7 +12.0 84 +15 +15 1020.7 978.0
02 16.07 З 1 30 км н/о +14.7 +11.8 83 +15 +15 1020.3 977.7
03 16.07 З 2 30 км н/о +14.4 +12.3 87 +14 +14 1020.1 977.4
04 16.07 З 2 25 км н/о +13.6 +11.6 88 +13 +13 1020.1 977.4
05 16.07 З 2 26 км н/о +13.3 +11.5 89 +13 +13 1020.2 977.3
06 16.07 ЮЗ 2 26 км н/о +13.5 +11.3 87 +13 +13 1020.3 977.5 +12.9
07 16.07 З 3 35 км н/о +15.4 +11.4 77 +15 +15 1020.0 977.5
08 16.07 З 2 40 км н/о +17.3 +10.8 66 +18 +18 1019.7 977.4
09 16.07 З 2 45 км н/о +18.4 +11.0 62 +19 +19 1019.4 977.3
10 16.07 С 2 45 км н/о +18.1 +11.7 66 +19 +19 1019.3 977.2
11 16.07 СВ 2 40 км н/о +18.9 +11.2 61 +20 +20 1018.9 977.0
12 16.07 ЮЗ 2 40 км н/о +19.6 +11.5 59 +21 +21 комфорт 1018.5 976.7
13 16.07 ЮЗ 3 40 км н/о +18.4 +12.5 68 +19 +19 1018.6 976.6
14 16.07 З 2 45 км н/о +19.1 +11.3 61 +21 +21 комфорт 1018.3 976.3
15 16.07 Ю 3 40 км н/о +20.2 +11.1 56 +22 +22 комфорт 1017.8 976.0
16 16.07 Ю 4 45 км н/о +20.7 +10.6 52 +23 +23 комфорт 1017.3 975.6
17 16.07 Ю 4 50 км н/о +19.7 +11.5 59 +21 +21 комфорт 1017.3 975.5
18 16.07 Ю 4 45 км н/о +18.8 +11.4 62 +20 +20 1017.4 975.5 +21.8
19 16.07 ЮЗ 3 50 км н/о +17.0 +10.7 66 +17 +17 1017.7 975.5
20 16.07 ЮЗ 4 40 км н/о +15.5 +10.7 73 +15 +15 1017.9 975.4
21 16.07 ЮЗ 2 45 км н/о +14.9 +10.0 72 +15 +15 1018.0 975.5
22 16.07 ЮЗ 3 40 км н/о +14.0 +9.8 76 +13 +13 1018.1 975.5
23 16.07 З 1 35 км н/о +12.8 +9.6 81 +13 +13 1018.0 975.2
00 17.07 ЮЗ 2 26 км н/о +12.6 +10.1 85 +12 +12 1017.8 975.0
01 17.07 ЮЗ 3 22 км н/о +12.6 +10.6 88 +11 +11 1017.4 974.6
02 17.07 ЮЗ 3 22 км н/о +12.1 +10.6 91 +11 +11 1016.8 974.0
03 17.07 ЮЗ 3 14 км н/о +11.4 +10.4 94 +10 +10 1016.4 973.4
04 17.07 ЮЗ 3 9000 м н/о +12.0 +11.4 96 +10 +10 1015.9 973.1
05 17.07 ЮЗ 2 12 км н/о +12.0 +11.2 95 +11 +11 1015.6 972.7
06 17.07 В 1 8000 м н/о +12.0 +11.1 94 +13 +13 1015.2 972.4 +11.3
07 17.07 ЮВ 2 19 км н/о +13.8 +12.2 90 +13 +13 1014.8 972.3
08 17.07 Ю 5 23 км н/о +14.3 +12.5 89 +13 +13 1014.7 972.3
09 17.07 Ю 6 25 км н/о +14.4 +12.5 88 +12 +12 1014.4 972.0
10 17.07 Ю 8 30 км н/о +15.4 +12.2 81 +14 +14 1013.9 971.7
11 17.07 Ю 7 35 км н/о +15.9 +10.8 72 +14 +14 1013.8 971.6
12 17.07 Ю 8 45 км н/о +15.9 +10.2 69 +14 +14 1013.3 971.2
13 17.07 Ю 7 24 км н/о +16.8 +11.9 73 +16 +16 1012.6 970.6
14 17.07 Ю 6 10 км н/о +14.7 +12.7 88 +13 +13 1012.7 970.4
15 17.07 Ю 7 14 км н/о +15.2 +13.0 87 +13 +13 1012.2 970.0
16 17.07 Ю 7 29 км н/о +14.5 +12.2 86 +12 +12 1012.0 969.7
17 17.07 Ю 6 21 км н/о +14.1 +12.5 90 +12 +12 1011.4 969.0
18 17.07 Ю 6 27 км н/о +14.7 +12.7 88 +13 +13 1010.5 968.3 +17.3 0.6
19 17.07 Ю 4 25 км н/о +14.4 +12.7 90 +13 +13 1010.4 968.1
20 17.07 Ю 5 14 км н/о +13.6 +12.3 92 +12 +12 1010.3 967.9
21 17.07 В 2 1500 м н/о +13.3 +12.7 96 +13 +13 1010.1 967.7
22 17.07 Ю 3 4100 м н/о +13.5 +13.3 99 +12 +12 1009.4 967.1
23 17.07 Ю 6 26 км н/о +13.9 +13.7 99 +12 +12 1008.7 966.4
00 18.07 Ю 4 1900 м н/о +14.0 +13.8 99 +12 +12 1008.2 966.0 2
01 18.07 Ю 3 1700 м н/о +14.3 +14.1 99 +13 +13 1007.8 965.6
02 18.07 ЮЗ 2 11 км н/о +13.4 +12.7 96 +13 +13 1007.9 965.6
03 18.07 ЮЗ 3 45 км н/о +12.2 +11.1 93 +11 +11 1008.2 965.7
05 18.07 ЮЗ 5 16 км н/о +11.8 +10.5 92 +9 +9 1008.5 966.0
06 18.07 ЮЗ 2 35 км н/о +12.0 +10.3 89 +11 +11 1008.9 966.4 +11.6 3
07 18.07 ЮЗ 1 26 км н/о +12.8 +10.7 87 +13 +13 1009.1 966.6
08 18.07 ЮЗ 5 35 км н/о +13.0 +10.6 85 +11 +11 1009.3 966.9

 

Местоположение метеостанции Озеро Вирнви (Великобритания): широта 52.75 долгота -3.47 высота над уровнем моря 359 м.

В архиве по умолчанию представлена погода на Озере Вирнви за последнюю неделю. Архивные данные за месяц целиком и за предыдущие месяцы, начиная с января 2011 года, Вы можете получить, выбрав интересующий диапазон дат из раскрывающегося списка и нажав кнопку "Ввод!".


*Определитесь, кто Вы:
робот инопланетянин человек

Внимание! Время в таблицах - всемирное. Для получения местного времени необходимо прибавить поправку, которая равна 0 ч.

Смотрите также архив погоды в соседних городах и на ближайших метеорологических станциях:

Погода в Бала (Великобритания) (18 км)
Погода в Кейпл Кериг (Великобритания) (50 км)
Погода в Шобери (Великобритания) (54 км)
Погода в Троскоеде (Великобритания) (55 км)
Погода в Риле (Великобритания) (56 км)
Погода в Гавардене (Великобритания) (57 км)
Погода в Шобдоне (Великобритания) (68 км)
Погода в Сеннибридже (Великобритания) (76 км)
Погода в Моне (Великобритания) (82 км)
Погода в Абердароне (Великобритания) (85 км)

Пояснения к столбцам:

Ветер - указаны скорость ветра в м/с - средняя за 10 мин, порывы в срок и между сроками (в фигурных скобках) и направление, откуда дует ветер: С - северный, СВ - северо-восточный, В - восточный, ЮВ - юго-восточный, Ю - южный, ЮЗ - юго-западный, З - западный, СЗ - северо-западный.
Видимость - горизонтальная дальность видимости в метрах или километрах. При видимости от 1 до 10 км при отсутствии осадков обычно наблюдается дымка, при ухудшении видимости до 1 км и менее - туман. В сухую погоду видимость может ухудшаться дымом, пылью или мглою.
Явления - указаны атмосферные явления, наблюдавшиеся в срок или в последний час перед сроком; фигурными скобками обозначены явления, наблюдавшиеся между сроками (за 1-3 часа до срока); квадратными скобками обозначены град или гололедные отложения с указанием их диаметра в мм.
Облачность - указаны через наклонную черту общая и нижняя облачность в баллах и высота нижней границы облаков в метрах; квадратными скобками обозначены формы облаков: Ci - перистые, Cs - перисто-слоистые, Cc - перисто-кучевые, Ac - высококучевые, As - высокослоистые, Sc - слоисто-кучевые, Ns - слоисто-дождевые, Cu - кучевые, Cb - кучево-дождевые. Подробнее классификацию облаков см. в Атласе облаков (PDF).
T - Температура воздуха - температура, измеренная на высоте 2 м над землей.
Td - Температура точки росы - температура, при понижении до которой содержащийся в воздухе водяной пар достигнет насыщения.
f - Относительная влажность воздуха - влажноcть воздуха, измеренная на высоте 2 м над землей.
Te - Эффективная температура - температура, которую ощущает одетый по сезону человек в тени. Характеристика душности погоды. При расчете учитывается влияние влажности воздуха и скорости ветра на теплоощущения человека.
Tes - Эффективная температура на солнце - температура, которую ощущает человек, с поправкой на солнечный нагрев. Характеристика знойности погоды. Зависит от высоты солнца над горизонтом, облачности и скорости ветра. Ночью, в пасмурную погоду, а также при ветре 12 м/с и более поправка равна нулю.
P - Атмосферное давление - приведенное к уровню моря атмосферное давление.
Po - Атмосферное давление - измеренное на уровне метеостанции атмосферное давление.
Tmin - Минимальная температура - минимум температуры воздуха на высоте 2 м над землей.
Tmax - Максимальная температура - максимум температуры воздуха на высоте 2 м над землей.
R - Количество осадков - Количество выпавших осадков за период времени, мм. При наведении курсора мыши на число - период времени, за который выпало указанное количество осадков.
R24 - Количество осадков - Количество выпавших осадков за 24 часа, мм.
S - Снежный покров - Высота снежного покрова, см. При наведении курсора мыши на число - состояние снежного покрова и степень покрытия местности в баллах.